Home   Weather   Sperryville   Past weeks
Flag for USA

Past Weather in Sperryville, Virginia, USA — Yesterday and Last 2 Weeks

Now
70 °F

Clear.


Feels Like: 70 °F
Forecast: 90 / 69 °F
Wind: 5 mph from Southwest

Location: warren County Airport

Current Time: Aug 22, 2019 at 6:05:03 am

Latest Report: Aug 22, 2019 at 5:15 am


Visibility: 10 mi

Pressure: 29.94 "Hg

Humidity: 94%

Dew Point: 68 °F

Location of SperryvilleLocation

Past Weather in Sperryville — Graph

°F

Sperryville Temperature Yesterday

Maximum temperature yesterday: 90 °F (at 2:55 pm)
Minimum temperature yesterday: 68 °F (at 12:15 am)
Average temperature yesterday: 78 °F

High & Low Weather Summary for the Past Weeks

 TemperatureHumidityPressure
High91 °F (Aug 18, 1:35 pm)100% (Aug 7, 6:15 am)30.12 "Hg (Aug 7, 6:15 am)
Low55 °F (Aug 11, 4:15 am)35% (Aug 9, 4:35 pm)29.75 "Hg (Aug 13, 5:55 pm)
Average75 °F78%29.94 "Hg
* Reported Aug 7 4:15 am — Aug 22 4:55 am, Sperryville. Weather by CustomWeather, © 2019

Note: Actual official high and low records may vary slightly from our data, if they occured in-between our weather recording intervals... More about our weather records

Advertising

Sperryville Weather History for the Previous 24 Hours

Scroll right to see more
 ConditionsComfort  
Time TempWeatherWind HumidityBarometerVisibility
4:55 am
Thu, Aug 22
70 °FClear.6 mph100%29.94 "Hg10 mi
4:35 am70 °FClear.6 mph100%29.94 "Hg10 mi
4:15 am70 °FClear.No wind100%29.93 "Hg10 mi
3:55 am70 °FClear.5 mph100%29.92 "Hg10 mi
3:35 am70 °FClear.No wind100%29.93 "Hg10 mi
3:15 am70 °FPassing clouds.No wind100%29.93 "Hg10 mi
2:55 am72 °FPassing clouds.No wind94%29.93 "Hg10 mi
2:35 am72 °FOvercast.3 mph94%29.94 "Hg10 mi
2:15 am72 °FOvercast.No wind94%29.95 "Hg10 mi
1:55 am72 °FOvercast.3 mph100%29.96 "Hg10 mi
1:35 am72 °FOvercast.No wind94%29.96 "Hg10 mi
1:15 am73 °FOvercast.No wind89%29.96 "Hg10 mi
12:55 am73 °FOvercast.No wind94%29.96 "Hg10 mi
12:35 am73 °FOvercast.No wind89%29.96 "Hg10 mi
12:15 am75 °FPassing clouds.No wind83%29.95 "Hg10 mi
11:55 pm
Wed, Aug 21
73 °FPassing clouds.No wind94%29.95 "Hg10 mi
11:35 pm73 °FPassing clouds.No wind89%29.94 "Hg10 mi
11:15 pm77 °FClear.No wind79%29.94 "Hg10 mi
10:55 pm77 °FClear.No wind79%29.94 "Hg10 mi
10:35 pm77 °FClear.3 mph79%29.93 "Hg10 mi
10:15 pm77 °FPassing clouds.No wind89%29.93 "Hg10 mi
9:35 pm77 °FMostly cloudy.No wind89%29.92 "Hg10 mi
9:15 pm77 °FMostly cloudy.No wind89%29.91 "Hg10 mi
8:55 pm79 °FPartly cloudy.No wind84%29.91 "Hg10 mi
8:35 pm79 °FMostly cloudy.No wind84%29.90 "Hg10 mi
8:15 pm79 °FPartly cloudy.No wind84%29.90 "Hg10 mi
7:55 pm81 °FScattered clouds.3 mph79%29.90 "Hg10 mi
7:35 pm82 °FScattered clouds.No wind74%29.89 "Hg10 mi
7:15 pm82 °FScattered clouds.No wind74%29.88 "Hg10 mi
6:55 pm86 °FSunny.No wind62%29.88 "Hg10 mi
6:35 pm86 °FSunny.5 mph66%29.89 "Hg10 mi
6:15 pm86 °FSunny.No wind62%29.89 "Hg10 mi
5:55 pm88 °FSunny.No wind62%29.89 "Hg10 mi
5:35 pm86 °FSunny.3 mph62%29.89 "Hg10 mi
5:15 pm86 °FScattered clouds.5 mph62%29.89 "Hg10 mi
4:55 pm86 °FBroken clouds.5 mph62%29.90 "Hg10 mi
4:35 pm84 °FBroken clouds.6 mph62%29.90 "HgN/A
4:15 pm86 °FBroken clouds.6 mph62%29.90 "HgN/A
3:55 pm88 °FBroken clouds.6 mph59%29.91 "HgN/A
3:35 pm88 °FBroken clouds.8 mph59%29.91 "HgN/A
3:15 pm90 °FScattered clouds.7 mph55%29.91 "HgN/A
2:55 pm90 °FBroken clouds.8 mph55%29.91 "HgN/A
2:35 pm88 °FMore clouds than sun.3 mph59%29.92 "HgN/A
2:15 pm86 °FBroken clouds.3 mph62%29.93 "HgN/A
1:55 pm88 °FScattered clouds.6 mph62%29.93 "HgN/A
1:35 pm88 °FScattered clouds.6 mph59%29.94 "HgN/A
1:15 pm88 °FPartly sunny.5 mph62%29.95 "HgN/A
12:55 pm86 °FOvercast.5 mph62%29.95 "HgN/A
12:35 pm86 °FScattered clouds.No wind62%29.95 "HgN/A
12:15 pm86 °FScattered clouds.5 mph62%29.96 "Hg10 mi
11:55 am86 °FSunny.6 mph62%29.96 "Hg10 mi
11:35 am84 °FSunny.5 mph70%29.97 "Hg10 mi
11:15 am82 °FSunny.5 mph74%29.97 "Hg10 mi
10:55 am82 °FSunny.5 mph74%29.97 "Hg10 mi
10:35 am81 °FSunny.5 mph74%29.97 "Hg10 mi
10:15 am79 °FSunny.6 mph79%29.96 "Hg10 mi
9:35 am77 °FSunny.5 mph79%29.97 "Hg10 mi
9:15 am77 °FSunny.7 mph83%29.98 "Hg10 mi
8:55 am75 °FScattered clouds.7 mph89%29.99 "Hg10 mi
8:35 am73 °FScattered clouds.3 mph94%30.00 "Hg10 mi
8:15 am73 °FSunny.5 mph94%29.99 "Hg10 mi
7:55 am72 °FSunny.3 mph94%29.98 "Hg10 mi
7:35 am72 °FSunny.No wind94%29.98 "Hg10 mi
7:15 am70 °FSunny.No wind100%29.97 "Hg10 mi
6:55 am68 °FSunny.5 mph100%29.98 "Hg10 mi
6:35 am68 °FSunny.No wind100%29.98 "Hg10 mi
6:15 am68 °FClear.No wind100%29.97 "Hg10 mi
Weather by CustomWeather, © 2019

See weather overview